Regional Weather Roundup
Issued by NWS

Home | Current Version | Previous Version | Graphics & Text | Print | Product List | Glossary On
Versions: 1 2 3 4 5 6 7 8 9 10 11 12 13 14 15 16 17 18 19 20 21 22 23 24 25 26 27 28 29 30 31 32 33 34 35 36 37 38 39 40 41 42 43 44 45 46 47 48 49 50
000
ASUS45 KTFX 291310
RWRMT
MONTANA REGIONAL WEATHER ROUNDUP
NATIONAL WEATHER SERVICE GREAT FALLS MT
700 AM MDT FRI APR 29 2016

NOTE: "FAIR" INDICATES FEW OR NO CLOUDS BELOW 12000 FEET WITH NO
SIGNIFICANT WEATHER AND/OR OBSTRUCTIONS TO VISIBILITY.

MTZ001>007-043-291400-
WEST OF THE DIVIDE

CITY           SKY/WX    TMP DP  RH WIND       PRES   REMARKS
KALISPELL      CLOUDY    41  37  86 CALM      29.93S
MISSOULA       CLOUDY    36  33  89 CALM      29.95F
BUTTE          CLOUDY    32  25  75 SE7       29.93S WCI  26
MULLAN PASS    CLOUDY    30  24  78 CALM      29.90S
ANACONDA         N/A     28  27  93 CALM      29.94S
DEER LODGE       N/A     32  27  80 CALM      29.96R
EUREKA           N/A     37  34  87 CALM      29.96S
HAMILTON         N/A     37  36  93 CALM      29.93S
LIBBY            N/A     34  30  86 CALM      29.96S
PLAINS           N/A     39  34  82 CALM      29.96S
$$

MTZ008-052>055-291400-
SOUTHWEST MONTANA

CITY           SKY/WX    TMP DP  RH WIND       PRES   REMARKS
BOZEMAN        CLOUDY    33  28  81 CALM      29.96S
DILLON         CLOUDY    34  26  72 NE6       29.91S WCI  29
TWIN BRIDGES     N/A     35  24  64 N10       29.92S WCI  27
$$

MTZ009-010-012-014-046-048-049-054-291400-
EAST SLOPES AND CENTRAL MONTANA

CITY           SKY/WX    TMP DP  RH WIND       PRES   REMARKS
CUT BANK       CLOUDY    35  34  96 E8        29.98F WCI  29
GREAT FALLS    CLOUDY    35  33  92 SW3       29.97F
MALMSTROM AFB  CLOUDY    36  35  98 S2        29.99S
HELENA         CLOUDY    38  32  79 W5        29.97R
CHOTEAU          N/A     36  36 100 NE3       29.98S
CONRAD           N/A     36  36 100 E2        30.01S
$$

MTZ011-013-016-021-045-047-050-051-291400-
NORTH CENTRAL MONTANA

CITY           SKY/WX    TMP DP  RH WIND       PRES   REMARKS
HAVRE          CLOUDY    41  35  79 E13       30.03F
LEWISTOWN      CLOUDY    37  29  72 E7        30.01S WCI  32
N BAR RANCH    FOG       32  32 100 CALM      30.04S VSB<1/4
CHINOOK          N/A     41  37  87 E8        30.06F
$$

MTZ017>020-022>027-061-062-291400-
NORTHEAST MONTANA

CITY           SKY/WX    TMP DP  RH WIND       PRES   REMARKS
GLASGOW        CLOUDY    40  34  79 E9        30.11S
JORDAN           N/A     39  36  89 E8        30.08S
SIDNEY         MOSUNNY   37  28  70 NE9       30.15S WCI  31
WOLF POINT     CLOUDY    41  35  79 E7        30.13F
PLENTYWOOD       N/A     37  21  52 E6        30.17S
POPLAR           N/A     39  30  70 NE7       30.14F
SCOBEY           N/A     40  21  46 CALM      30.11S
$$

MTZ028>42-056>058-291400-
SOUTHCENTRAL AND SOUTHEAST MONTANA

CITY           SKY/WX    TMP DP  RH WIND       PRES   REMARKS
BAKER          CLOUDY    38  36  92 E3        30.11F
BILLINGS       CLOUDY    36  35  96 NE5       30.01F
LIVINGSTON     CLOUDY    34  30  85 E9        29.97S WCI  27
MILES CITY     CLOUDY    40  35  83 E6        30.08F
EKALAKA          N/A     36  31  82 SE7       30.06R WCI  30
FORSYTH          N/A     39  39 100 E7        30.07F
LAUREL           N/A     35  28  76 CALM      29.99S
ROUNDUP          N/A     33  30  89 CALM      29.95S
$$

REGIONAL REPORTS...DAKOTAS

CITY           SKY/WX    TMP DP  RH WIND       PRES   REMARKS
WILLISTON      MOSUNNY   37  26  64 NE5       30.18S
MINOT          MOSUNNY   40  23  50 N6        30.20S
DICKINSON      CLOUDY    38  30  73 E7        30.12S
BEACH          CLOUDY    39  37  93 E7        30.14F
CROSBY           N/A     36  25  64 E3        30.22S
TIOGA            N/A     34  23  64 NE3       30.23S
WATFORD CITY     N/A     34  27  75 CALM      30.17S
BISMARCK       SUNNY     37  30  75 E5        30.19R
GRAND FORKS    CLOUDY    39  31  72 N10       30.21S
FARGO          CLOUDY    41  35  79 CALM      30.17R
BUFFALO SD       N/A     37  35  92 E3        30.05R
RAPID CITY     CLOUDY    36  33  89 CALM      30.12R
$$

REGIONAL REPORTS...WYOMING/IDAHO/WASHINGTON

CITY           SKY/WX    TMP DP  RH WIND       PRES   REMARKS
GILLETTE       CLOUDY    35  33  92 SE9       30.05R WCI  28
SHERIDAN       CLOUDY    37  33  85 E7        30.02R WCI  32
BUFFALO WY       N/A    N/A N/A N/A MISG      30.04R
CODY           CLOUDY    34  30  86 CALM      29.99R
YELLOWSTONE LA   N/A     24  20  84 CALM      29.95R
IDAHO FALLS    CLOUDY    40  30  67 E6        29.90R
SALMON         CLOUDY    37  34  87 CALM      29.91S
BOISE          CLOUDY    48  40  73 NW10      29.90S
SPOKANE        CLOUDY    47  40  76 SE5       29.94S
$$

REGIONAL REPORTS...ALBERTA

CITY           SKY/WX    TMP DP  RH WIND       PRES   REMARKS
EDMONTON       CLEAR     46  30  53 S14       29.94R
CALGARY        MOCLDY    36  28  75 S10       29.94R WCI  28
LETHBRIDGE     MOCLDY    30  30 100 S10G25    29.99S WCI  21
MEDICINE HAT   CLOUDY    41  39  93 N2        30.04S
WATERTON GATE    N/A     30  28  93 CALM        N/A
$$

REGIONAL REPORTS...SASKATCHEWAN

CITY           SKY/WX    TMP DP  RH WIND       PRES   REMARKS
SWIFT CURRENT  CLOUDY    36  28  75 SE7       30.10S WCI  30
REGINA         MOSUNNY   37  14  38 SE14      30.21R WCI  29
SASKATOON      MOSUNNY   41  27  56 SE10      30.18R
VAL MARIE        N/A     30  28  93 NE8         N/A  WCI  23
ROCKGLEN         N/A     37  23  56 E7          N/A
ASSINIBOIA       N/A     43  32  65 SE12        N/A
$$



USA.gov is the U.S. government's official web portal to all federal, state and local government web resources and services.